Location: *
(40.7687°S, 106.2529°E)
Time: 10:46:12
(UTC+00:00)

Daily predictions for brighter satellites

Satellite Brightness Start Highest point End
(mag) Time Altitude Azimuth Time Altitude Azimuth Time Altitude Azimuth
FengYun 1-2 T 4.3 12:02:47 10° SSE 12:08:31 76° ENE 12:14:12 10° N
Cosmos-2242 3.5 12:06:00 10° SSW 12:10:26 67° W 12:14:50 10° N
Cosmos 1328 3.7 12:06:44 10° N 12:10:38 65° E 12:14:37 10° SSE
DELTA 2 R/B (1) 4.4 12:09:26 10° NNW 12:14:24 33° NNE 12:18:26 14° E
CZ-4C R/B 4.0 12:10:16 10° NNE 12:16:07 22° ENE 12:21:33 10° ESE
Cosmos 1900 4.4 12:11:19 10° SSW 12:16:28 74° ESE 12:21:05 13° NE
DMSP B5D2-2 4.2 12:11:27 10° NNE 12:16:35 59° ESE 12:21:46 10° S
USA 215 3.8 12:10:58 10° ESE 12:16:57 36° NE 12:22:54 10° NNW
Envisat 3.8 12:17:32 10° S 12:22:35 58° WSW 12:27:35 10° NNW
Cosmos 1656 Rocket 3.7 12:17:34 10° SSW 12:23:19 77° ESE 12:28:40 12° NNE
USA 186 4.0 12:21:49 10° SE 12:22:45 13° ESE 12:22:45 13° ESE
Cosmos 1605 Rocket 3.9 12:19:42 10° N 12:25:47 72° E 12:31:59 10° SSE
Cosmos 1943 Rocket 3.6 12:21:04 10° SW 12:26:05 36° WNW 12:31:04 10° N
YAOGAN 6 3.7 12:23:14 10° S 12:26:53 49° WSW 12:30:29 10° NNW
SL-8 R/B 4.0 12:22:33 10° WNW 12:27:23 69° SSW 12:32:16 10° ESE
Cosmos 1503 Rocket 4.0 12:22:23 10° N 12:27:33 59° ENE 12:32:50 10° SSE
Intercosmos 25 Rocket 4.1 12:28:28 10° SSE 12:31:30 30° E 12:32:45 25° ENE
H-2A ROCKET BODY 3.7 12:21:14 10° W 12:38:52 35° NNW 12:42:35 18° NNE
Cosmos 1242 Rocket 3.2 12:36:47 10° NNW 12:40:20 57° WSW 12:43:55 10° S
ISS -1.6 12:38:55 10° N 12:39:40 14° N 12:39:40 14° N
MONITOR-E 4.5 12:39:56 10° SSE 12:42:20 39° ESE 12:42:20 39° ESE
Cosmos 220 Rocket 4.0 12:39:30 10° SSW 12:43:58 87° WNW 12:46:50 21° NNE
Cosmos 2173 Rocket 4.4 12:43:18 21° NE 12:46:47 38° E 12:52:24 10° SSE
Cosmos 1939 Rocket 2.8 12:45:03 10° S 12:49:00 83° WSW 12:52:54 10° NNW
CSL-04 Rocket 4.3 12:47:15 10° S 12:52:44 61° WSW 12:58:11 10° NNW
Cosmos 1340 Rocket 3.4 12:50:35 10° SSW 12:54:34 55° W 12:57:48 14° N
YAOGAN 1 4.1 12:52:51 10° S 12:56:57 39° WSW 13:01:00 10° NW
Cosmos 2058 3.5 12:58:14 37° E 12:58:14 37° E 13:01:56 10° SSE
NOAA 11 4.3 12:54:36 10° S 13:00:13 82° WSW 13:05:43 10° NNW
Ariane Rocket 3.0 13:00:01 10° SSE 13:05:12 89° W 13:10:18 10° NNW
EXPRESS MD2 3.4 13:02:41 10° SW 13:05:50 73° SSE 13:07:06 45° ENE
Cosmos 2100 Rocket 4.0 13:02:44 20° NNE 13:07:02 61° E 13:13:14 10° SSE
Cosmos 1842 Rocket 4.2 13:03:45 10° SSW 13:08:03 53° W 13:11:09 18° NNW
ARGOS 4.0 13:03:43 10° SE 13:07:56 30° E 13:07:56 30° E
CZ-4 R/B 4.3 13:08:23 10° SSW 13:11:08 18° WSW 13:13:55 10° WNW
Aureole 2 Rocket 3.1 13:12:55 10° SSW 13:14:58 41° SSW 13:14:58 41° SSW
MTI 4.0 13:16:10 65° W 13:16:10 65° W 13:19:22 10° SSW
Cosmos 783 Rocket 4.4 13:11:48 10° SSW 13:17:06 76° ESE 13:18:29 49° NE
SPOT 3 Rocket 3.7 13:16:53 10° SSE 13:21:54 49° E 13:21:54 49° E
Cosmos 1869 3.5 13:20:14 10° S 13:23:52 61° SE 13:23:52 61° SE
Cosmos 2016 Rocket 4.0 13:28:55 46° NE 13:30:34 60° E 13:36:53 10° SSE
Cosmos 1867 3.5 13:29:00 10° SSW 13:34:26 68° SE 13:35:02 62° E
Cosmos 2221 3.8 13:30:22 10° SSW 13:34:28 38° W 13:36:22 25° NW
Mayak 1.1 13:37:14 14° SE 13:37:14 14° SE 13:38:27 10° SSE
Cosmos 1356 Rocket 4.1 13:33:00 10° S 13:36:12 45° SSE 13:36:12 45° SSE
H-2A R/B 2.0 13:34:49 10° SSE 13:39:18 61° ESE 13:39:18 61° ESE
CZ-2C R/B 3.7 13:36:46 19° NNW 13:40:00 39° W 13:44:55 10° SSW
CZ-3B R/B 4.5 13:18:13 10° WNW 13:41:49 38° NNW 13:44:27 33° NNE
Cosmos 2061 Rocket 3.9 13:43:06 50° N 13:44:53 82° E 13:51:14 10° S
USA 229 DEB 3.5 13:39:55 10° SSW 13:46:51 78° SE 13:48:04 61° ENE
USA 229 3.5 13:39:56 10° SSW 13:46:55 77° SE 13:48:09 60° ENE
Resurs 01 Rocket 3.5 13:44:44 10° SSE 13:46:14 20° SE 13:46:14 20° SE
EO 1 Del DPAF 4.2 13:50:31 46° SW 13:50:31 46° SW 13:53:22 10° SSW
NOSS 3-1 (A) 3.7 13:46:40 10° SSW 13:52:55 50° SE 13:53:17 49° ESE
Cosmos 1980 Rocket 4.1 13:50:51 10° S 13:54:24 17° SE 13:54:26 17° SE
USA 186 3.9 13:51:42 10° S 13:54:27 29° WSW 13:54:27 29° WSW
SJ-6B 3.7 13:51:53 10° S 13:55:47 51° WSW 13:55:47 51° WSW
Cosmos 773 Rocket 3.9 13:51:32 10° SSW 13:56:42 84° SW 13:56:42 84° SW
Cosmos 1656 4.2 13:52:52 10° SSW 13:58:03 48° SE 13:58:03 48° SE
USA 215 3.6 13:53:38 10° SE 14:00:10 66° SW 14:06:41 10° WNW
DELTA 2 R/B (1) 4.0 13:54:50 10° WNW 13:59:14 53° NW 13:59:14 53° NW
Cosmos 1833 Rocket 4.4 14:05:11 21° SE 14:05:11 21° SE 14:07:08 10° SE
CZ-4C R/B 2.9 13:56:01 10° NW 14:04:14 85° SW 14:11:25 10° SSE
Thor Agena Rocket 3.7 14:05:13 64° W 14:05:13 64° W 14:10:14 10° SSW
Tsikada Rocket 3.9 13:59:46 10° S 14:05:51 70° ESE 14:05:51 70° ESE
CZ-2C R/B 3.5 14:01:40 10° SSE 14:05:38 52° SSE 14:05:38 52° SSE
NOSS 3-1 (C) 3.2 14:03:59 10° SW 14:10:07 81° W 14:10:07 81° W
MOS 1 Rocket 4.4 14:13:22 39° W 14:13:22 39° W 14:17:57 10° SSW
ATLAS CENTAUR R/B 4.1 14:01:10 10° WNW 14:14:03 55° SW 14:18:54 10° SSE
Lacrosse 4 Rocket 4.0 14:14:22 10° S 14:16:02 15° SSE 14:16:02 15° SSE
Cosmos 2082 Rocket 4.2 14:27:28 17° SE 14:27:28 17° SE 14:28:48 10° SE
COSMOS 2406 3.8 14:26:28 50° W 14:27:18 55° WSW 14:32:55 10° SSE
USA 267 3.3 14:33:08 69° SE 14:33:14 69° SE 14:39:49 10° SW
Cosmos 1697 Rocket 3.6 14:43:08 10° SSW 14:47:05 45° S 14:47:05 45° S
SL-16 R/B 4.4 14:47:03 10° SSE 14:49:45 15° SE 14:49:45 15° SE
Cosmos 2233 Rocket 4.5 14:55:32 58° SW 14:55:32 58° SW 15:01:10 10° S
Mayak 1.5 15:13:48 17° SSW 15:13:48 17° SSW 15:14:58 10° SSW
H-2A R/B 4.5 15:15:51 10° SSW 15:18:40 15° WSW 15:19:56 14° W
Cosmos 2322 Rocket 4.2 15:17:48 10° S 15:20:45 20° SSE 15:20:45 20° SSE
Resurs 01 Rocket 4.3 15:21:57 10° SSW 15:23:48 17° SW 15:23:48 17° SW
Cosmos 1980 Rocket 3.8 15:33:26 10° SSW 15:36:12 30° SSW 15:36:12 30° SSW
Cosmos 1833 Rocket 4.5 15:46:48 27° SW 15:46:48 27° SW 15:50:44 10° S
Terra 4.4 15:45:57 10° SSE 15:46:52 16° SSE 15:46:52 16° SSE
Cosmos 2082 Rocket 4.2 16:09:15 24° SSW 16:09:15 24° SSW 16:12:30 10° S
ATLAS 2AS CENTAUR R/B 4.0 16:19:11 10° SSW 16:24:12 32° SSE 16:24:12 32° SSE
SL-16 R/B 4.2 16:29:29 10° SSW 16:31:36 24° SSW 16:31:36 24° SSW
Resurs 1-4 Rocket 4.4 16:44:37 19° SSE 16:44:37 19° SSE 16:46:43 10° SSE
Cosmos 2219 Rocket 4.5 16:41:23 10° S 16:44:39 18° SE 16:44:39 18° SE
Cosmos 2322 Rocket 4.4 17:01:02 10° SSW 17:02:33 19° SW 17:02:33 19° SW
CZ-2D R/B 4.0 17:18:25 27° SSE 17:18:25 27° SSE 17:21:03 10° S
Cosmos 2360 Rocket 4.3 17:11:47 10° SSW 17:13:41 22° SSW 17:13:41 22° SSW
CZ-3B R/B 4.3 17:22:18 51° E 17:22:18 51° E 17:25:58 10° ESE
Cosmos 2227 Rocket 4.4 17:53:14 17° E 17:53:14 17° E 17:55:34 10° ESE
Cosmos 2297 Rocket 4.2 17:58:41 20° E 17:58:41 20° E 18:01:28 10° SE
Cosmos 2333 Rocket 3.8 17:53:44 10° SSW 17:56:34 30° S 17:56:34 30° S
ATLAS 2AS CENTAUR R/B 4.4 18:09:41 10° SW 18:11:37 21° SW 18:11:37 21° SW
Resurs 1-4 Rocket 4.2 18:25:41 18° SW 18:25:41 18° SW 18:27:07 10° SSW
Cosmos 1553 Rocket 4.5 18:26:32 57° ESE 18:26:32 57° ESE 18:32:00 10° SSE
Cosmos 2219 Rocket 3.9 18:24:05 10° SSW 18:26:20 25° SSW 18:26:20 25° SSW
Cosmos 2219 4.0 18:34:48 49° SE 18:34:48 49° SE 18:39:02 10° SSE
Lacrosse 5 rocket 4.5 18:33:28 10° SSW 18:34:50 12° S 18:36:28 10° S
Cosmos 2237 Rocket 2.9 18:32:03 10° SSW 18:37:28 49° ESE 18:37:28 49° ESE
ATLAS CENTAUR R/B 3.9 18:54:03 17° SSE 18:54:03 17° SSE 18:54:59 10° SSE
ADEOS II 3.3 18:54:45 35° SSW 18:54:45 35° SSW 18:57:48 10° SSW
GEOS 3 Rocket 4.1 18:48:31 10° SE 18:52:44 58° SSE 18:52:44 58° SSE
Cosmos 1980 4.1 18:48:45 10° SSW 18:53:40 61° SSE 18:53:40 61° SSE
ARIANE 5 R/B 3.8 18:58:10 32° SSW 18:58:10 32° SSW 19:01:00 10° SSW
CZ-2D R/B 4.5 18:59:43 12° SW 18:59:43 12° SW 19:00:18 10° SW
Cosmos 2098 Rocket 4.2 18:52:08 10° S 18:55:50 51° SE 18:55:50 51° SE
Lacrosse 5 3.3 19:07:07 30° SSW 19:07:07 30° SSW 19:11:27 10° SSE
Cosmos 1743 4.5 19:15:46 31° SSE 19:15:46 31° SSE 19:17:53 10° SSE
Cosmos 1066 Rocket 4.4 19:12:55 10° SSW 19:17:29 59° SW 19:17:29 59° SW
Cosmos 1371 Rocket 4.0 19:19:57 78° SE 19:19:57 78° SE 19:24:53 10° SSE
Cosmos 1745 Rocket 3.8 19:14:56 10° SSW 19:21:07 72° W 19:21:07 72° W
SL-4 R/B 4.3 19:22:39 17° SSW 19:23:37 18° S 19:26:37 10° SE
Cosmos 1190 Rocket 4.3 19:18:58 10° SSW 19:24:18 65° ESE 19:26:41 33° NE
S3M 4.1 19:25:03 60° W 19:25:10 60° W 19:31:28 10° S
IDEFIX/ARIANE 42P 3.2 19:23:23 24° NE 19:26:23 53° ESE 19:31:29 10° S
Cosmos 407 Rocket 3.6 19:21:19 10° SSW 19:26:44 77° ESE 19:27:54 55° NE
RESURS DK-1 3.1 19:24:47 10° SSW 19:28:55 52° ESE 19:29:06 51° ESE
UNK 3.9 19:24:30 10° SSE 19:29:16 69° ENE 19:29:19 69° ENE
SL-16 R/B 3.1 19:24:11 10° SSW 19:29:44 49° ESE 19:35:13 10° NE
Cosmos 883 Rocket 4.4 19:32:45 57° NNW 19:34:12 86° W 19:40:41 10° S
Cosmos 1975 Rocket 4.3 19:30:08 10° SSW 19:32:45 32° SSW 19:32:45 32° SSW
Cosmos 2227 Rocket 2.2 19:35:03 61° WSW 19:35:18 62° WSW 19:40:58 10° SSE
Cosmos 2082 3.6 19:39:19 66° NNW 19:40:11 88° WSW 19:45:57 10° SSE
Cosmos 2297 Rocket 2.4 19:40:29 52° WSW 19:40:50 52° WSW 19:46:26 10° SSE
Cosmos 1842 4.1 19:37:00 10° S 19:40:55 49° E 19:41:43 41° ENE
Gbstr 26 Del rocket 4.4 19:40:03 41° W 19:42:10 56° SSW 19:48:05 10° SE
SL-16 R/B 2.5 19:38:07 10° SSE 19:44:24 84° ENE 19:46:46 41° N
ATLAS CENTAUR R/B 4.2 19:48:08 11° SE 19:48:08 11° SE 19:48:18 10° ESE
Cosmos 1975 3.3 19:49:11 52° SSW 19:49:11 52° SSW 19:52:28 10° S
Atlas Centaur 2 3.6 19:52:02 16° NNE 19:52:02 16° NNE 19:53:38 10° NE
Cosmos 1420 Rocket 4.4 19:48:41 38° NNE 19:50:30 60° ENE 19:55:41 10° SSE
Cosmos 2315 Rocket 4.0 19:48:54 42° NNW 19:51:17 81° W 19:57:46 10° S
H-2A R/B 2.1 19:48:46 10° SSE 19:52:57 70° ENE 19:53:35 58° NNE
Meteor 1-21 4.4 19:47:22 10° S 19:53:07 71° E 19:58:44 10° NNE
Meteor 2-9 Rocket 4.3 19:56:39 34° N 19:59:19 87° E 20:05:17 10° S
Okean 2 Rocket 3.4 20:00:05 49° WSW 20:00:05 49° WSW 20:04:14 10° S
Cosmos 1954 Rocket 4.1 19:57:30 10° SSW 20:02:54 79° ESE 20:08:16 10° NNE
SeaSat 1 4.1 20:00:54 10° ENE 20:05:21 35° SE 20:09:52 10° S
Cosmos 1441 Rocket 3.2 20:06:00 68° WNW 20:06:11 69° W 20:10:13 10° S
Cosmos 1025 Rocket 3.0 20:03:07 10° S 20:07:34 82° E 20:10:22 22° N
Meteor 2-8 Rocket 4.4 20:05:13 35° NNW 20:07:57 70° W 20:14:06 10° S
Cosmos 1300 Rocket 3.6 20:10:48 51° WNW 20:11:23 56° W 20:15:47 10° S
Cosmos 1140 Rocket 3.5 20:08:34 10° SSW 20:13:48 61° WNW 20:18:58 10° N
Cosmos 2056 Rocket 4.2 20:14:07 34° W 20:15:08 37° WSW 20:20:04 10° S
Okean 1 Rocket 3.4 20:12:32 20° N 20:15:29 63° E 20:19:53 10° SSE
Lacrosse 5 rocket 4.4 20:13:58 10° SSW 20:15:56 12° SSE 20:17:54 10° SE
Cosmos 1818 3.8 20:15:17 38° WNW 20:17:03 54° SW 20:22:21 10° SSE
CZ-4C R/B 2.9 20:13:51 10° SSE 20:17:06 72° E 20:17:45 52° NNE
Meteor 1-31 Rocket 4.1 20:13:37 10° NE 20:17:15 41° ESE 20:20:58 10° S
ADEOS 3.8 20:17:36 31° NNW 20:19:40 47° W 20:24:47 10° SSW
Cosmos 2237 Rocket 3.7 20:16:53 10° SW 20:19:12 19° WSW 20:19:12 19° WSW
Landsat 5 3.9 20:17:30 10° SSE 20:21:33 59° E 20:24:47 16° N
Cosmos 405 Rocket 3.7 20:19:31 12° NNE 20:22:51 46° E 20:26:35 10° SSE
Cosmos 1378 4.1 20:19:23 10° SSW 20:22:11 32° WSW 20:22:11 32° WSW
SAR-Lupe-4 3.8 20:21:05 10° S 20:24:38 49° WSW 20:25:06 46° W
Cosmos 1536 Rocket 3.7 20:21:41 10° SSW 20:26:04 53° W 20:28:08 28° NNW
CZ-2C R/B 2.5 20:22:37 10° NNE 20:27:33 79° ESE 20:32:23 10° S
H-2A R/B 2.7 20:28:21 14° N 20:32:07 55° W 20:36:38 10° SSW
Cosmos 1544 3.3 20:32:19 39° NW 20:33:12 49° W 20:36:48 10° S
SJ-6F 4.3 20:31:49 10° N 20:35:55 81° WNW 20:40:06 10° SSW
Shenzhou-11 Module 3.3 20:37:08 24° N 20:37:36 25° NNE 20:39:59 10° E
SL-08 R/B 3.4 20:33:49 10° S 20:38:44 67° WSW 20:42:19 18° NNW
Cosmos 389 Rocket 2.3 20:35:33 10° SSW 20:39:09 81° W 20:42:40 10° N
Cosmos 1607 4.2 20:34:02 14° NNW 20:39:31 70° ENE 20:45:56 10° SE
Cosmos 1741 Rocket 4.5 20:34:15 10° SSW 20:39:33 66° ESE 20:44:50 10° NNE
Cosmos 2184 Rocket 3.9 20:36:27 10° S 20:42:42 81° W 20:48:53 10° N
Unknown 4.5 20:44:04 18° NNW 20:46:55 45° NE 20:50:57 10° ESE
Unknown 4.3 20:44:35 19° NNW 20:47:21 50° NE 20:51:27 10° ESE
ISS -2.6 20:47:53 25° NW 20:47:53 25° NW 20:50:28 10° NNE
USA 215 3.4 20:41:27 10° NE 20:48:00 78° SE 20:54:37 10° SW
Unknown 4.3 20:46:08 18° NNW 20:49:00 50° NE 20:53:05 10° ESE
Lacrosse 5 4.3 20:48:51 10° SW 20:51:27 14° S 20:54:03 10° SSE
Unknown 4.4 20:49:00 16° NNW 20:52:04 48° NE 20:56:08 10° ESE
Cosmos 2263 Rocket 2.6 20:46:44 10° N 20:52:15 65° ENE 20:57:53 10° SSE
Meteor 1-15 Rocket 4.3 20:49:05 10° N 20:54:39 79° E 21:00:20 10° SSE
Okean O Rocket 3.6 20:51:15 10° NE 20:55:08 32° ESE 20:59:06 10° S
Unknown 4.3 20:52:09 16° NNW 20:55:20 51° NE 20:59:26 10° ESE
MSX 4.4 20:51:03 10° NNW 20:56:20 37° W 21:01:42 10° SSW
Unknown 4.2 20:53:51 15° NNW 20:57:05 53° NE 21:01:12 10° ESE
Unknown 4.1 20:55:21 15° NNW 20:58:39 55° NE 21:02:47 10° ESE
Unknown 3.9 20:55:33 17° NW 20:58:40 64° NE 21:02:49 10° ESE
CZ-3A R/B 4.2 20:56:16 10° N 20:59:51 17° NE 21:07:27 10° ENE
Unknown 4.1 20:57:01 15° NNW 21:00:23 57° NE 21:04:32 10° ESE
Cosmos 1455 Rocket 3.9 20:57:36 10° N 21:01:50 52° E 21:06:09 10° SSE
Geosat 4.3 20:57:08 10° SSE 21:02:02 50° WSW 21:06:20 13° NW
Unknown 3.6 21:00:43 17° NW 21:03:47 88° NE 21:07:55 10° SE
SL-4 R/B 4.2 21:00:47 10° SW 21:04:22 26° SSE 21:08:10 10° ESE
IDEFIX/ARIANE 42P 3.9 21:04:11 15° WNW 21:06:16 19° W 21:09:54 10° SW
RESURS DK-1 4.5 21:04:29 10° WSW 21:04:48 11° WSW 21:04:48 11° WSW
Unknown 3.9 21:03:22 13° NW 21:06:57 66° NE 21:11:09 10° SE
Cosmos 1452 Rocket 4.3 21:03:10 15° WNW 21:07:00 35° WSW 21:11:55 10° S
Unknown 3.9 21:05:01 13° NW 21:08:39 68° NE 21:12:52 10° SE
ASTRO E2 4.5 21:07:13 13° NW 21:09:03 18° N 21:11:47 10° NNE
Unknown 3.8 21:06:36 13° NW 21:10:19 70° NE 21:14:31 10° SE
Okean 1-7 Rocket 3.7 21:06:47 10° S 21:11:16 80° E 21:15:41 10° N
CZ-4B R/B 3.1 21:08:24 10° NNW 21:11:48 38° W 21:15:17 10° SSW
Unknown 3.8 21:08:09 12° NW 21:11:55 73° NE 21:16:08 10° SE
CZ-4B DEB 4.3 21:06:36 10° NNE 21:12:06 85° ESE 21:17:42 10° SSW
Cosmos 1603 3.7 21:07:31 10° SSW 21:13:14 84° WNW 21:18:51 10° NNE
SL-16 R/B 3.2 21:09:04 10° SW 21:13:28 23° W 21:17:49 10° NNW
Unknown 3.8 21:09:47 12° NW 21:13:37 75° NE 21:17:50 10° SE
DNEPR-1 R/B 4.2 21:09:55 10° NNW 21:14:37 58° ENE 21:18:46 10° SE
MOS 1-B 4.3 21:09:00 10° N 21:14:49 76° WNW 21:20:43 10° SSW
Cosmos 1707 3.3 21:12:03 10° SSW 21:15:41 36° W 21:19:17 10° NNW
Cosmos 2074 Rocket 4.4 21:10:03 10° SSW 21:16:00 42° W 21:21:51 10° NNW
PAYLOAD B 4.4 21:10:54 10° NNE 21:16:26 83° ESE 21:22:02 10° SSW
CZ-4B R/B 1.7 21:13:21 10° S 21:16:52 52° WSW 21:20:18 10° NNW
Unknown 3.7 21:13:01 11° NW 21:16:58 80° NE 21:21:12 10° SE
Starlink (trailer) 3.7 21:14:37 11° NW 21:18:39 83° NE 21:22:53 10° SE
Unknown 4.5 21:15:28 12° W 21:18:43 35° SSW 21:22:21 10° SE
Unknown 3.7 21:16:11 11° NW 21:20:16 85° NE 21:24:31 10° SE
Cosmos 2227 Rocket 4.3 21:19:14 10° WSW 21:20:35 11° SW 21:21:56 10° SSW
Cosmos 909 Rocket 4.4 21:15:13 10° SW 21:21:53 69° WNW 21:30:00 10° NNE
Unknown 3.7 21:17:44 10° NW 21:21:53 87° NE 21:26:07 10° SE
PSLV R/B 3.9 21:19:18 10° N 21:23:03 53° W 21:26:57 10° SSW
Unknown 4.4 21:22:05 10° W 21:25:43 38° SSW 21:29:27 10° SE
SL-16 R/B 4.1 21:23:26 10° SSW 21:27:12 17° WSW 21:30:57 10° W
CZ-4C R/B 4.0 21:22:25 10° SSW 21:27:31 32° SE 21:32:00 10° ENE
Unknown 3.7 21:24:07 10° NW 21:28:20 82° SW 21:32:33 10° SE
H-2A R/B 4.1 21:27:24 10° SW 21:28:20 11° WSW 21:29:17 10° WSW
Unknown 3.7 21:24:25 10° NW 21:28:37 83° SW 21:32:51 10° SE
Unknown 3.7 21:25:03 10° NW 21:29:15 82° SW 21:33:29 10° SE
Cosmos 1766 3.4 21:28:03 10° N 21:32:05 89° E 21:36:11 10° S
CZ-4B R/B 3.3 21:27:36 10° NNE 21:33:01 86° ESE 21:38:38 10° SSW
Unknown 3.7 21:28:58 10° NW 21:33:09 76° SW 21:37:24 10° SE
Cosmos 1110 Rocket 4.1 21:28:22 10° NNW 21:33:29 59° WSW 21:38:41 10° SSE
Unknown 3.7 21:29:23 10° NW 21:33:35 75° SW 21:37:48 10° SE
Meteor 2-5 Rocket 3.8 21:28:43 10° S 21:34:22 90° W 21:40:00 10° N
Unknown 3.7 21:31:10 10° WNW 21:35:21 70° SW 21:39:35 10° SE
Helios 1A Rocket 2.9 21:31:35 10° N 21:35:43 74° WNW 21:39:53 10° SSW
ATLAS 3B CENTAUR R/B 4.5 21:20:19 10° W 21:36:00 38° NNW 21:43:20 10° NE
Cosmos 332 Rocket 3.9 21:31:18 10° NNW 21:36:12 87° ENE 21:41:09 10° SSE
